Location: Cudham
(51.3000°N, 0.0667°E)
Time: 06:11:08
(UTC+00:00)

USA 229 - Pass Details

Date: 19 May 2025
Orbit: 872 x 1339 km, 63.4° (Epoch: 17 June)

Event Time Altitude Azimuth Distance (km) Brightness Sun altitude
Exits shadow 23:20:51 30° 171° (S) 1,620 4.1 -18.3°
Maximum altitude 23:23:21 45° 121° (ESE) 1,306 3.9 -18.3°
Drops below altitude 10° 23:29:41 10° 51° (NE) 2,890 6.4 -18.5°
Sets 23:32:35 0° 46° (NE) 3,923 7.2 -18.5°
